Location: Les Coudrans
(46.1056°N, 1.1158°W)
Time: 06:56:34
(UTC+00:00)

SJ 16-02 - Pass Details

Date: 03 March 2021
Orbit: 605 x 617 km, 75.0° (Epoch: 18 April)

Event Time Altitude Azimuth Distance (km) Brightness Sun altitude
Rises 21:12:32 0° 333° (NNW) 2,883 5.5 -34.1°
Reaches altitude 10° 21:14:53 10° 325° (NW) 1,976 4.6 -34.4°
Enters shadow 21:16:28 20° 314° (NW) 1,416 3.8 -34.7°
